Change the Weather History Date:

Monday, March 4, 2013

  Actual Average Record
Temperature  
Mean Temperature 30 °F -  
Max Temperature 33 °F 28 °F 43 °F (1957)
Min Temperature 24 °F 9 °F -38 °F (1971)
Degree Days  
Heating Degree Days 36    
Moisture  
Dew Point 21 °F    
Average Humidity 72    
Maximum Humidity 78    
Minimum Humidity 61    
Precipitation  
Precipitation 0.00 in - - ()
Sea Level Pressure  
Sea Level Pressure 30.40 in    
Wind  
Wind Speed 10 mph (NNE)    
Max Wind Speed 15 mph    
Max Gust Speed -    
Visibility 10 miles    
Events      
Averages and records for this station are not official NWS values.
T = Trace of Precipitation, MM = Missing Value Source: NWS Daily Summary

Daily Weather History Graph

Daily Weather History Graph

Search for Another Location

Airport or City:

Trip Planner

Search our weather history database for the weather conditions in past years. The results will help you decide how hot, cold, wet, or windy it might be!

Date:

Astronomy

Mar. 04, 2013 Rise Set
Actual Time 7:53 AM AKST 6:40 PM AKST
Civil Twilight 7:11 AM AKST 7:22 PM AKST
Nautical Twilight 6:22 AM AKST 8:11 PM AKST
Astronomical Twilight 5:32 AM AKST 9:02 PM AKST
Moon 3:28 AM AKST (3/4) 10:15 AM AKST (3/4)
Length of Visible Light 12h 11m
Length of Day
10h 46m
Waning Gibbous, 50% of the Moon is Illuminated
Mar 4
Waning Gibbous
Mar 4
Last Quarter
Mar 11
New
Mar 19
First Quarter
Mar 27
Full

Hourly Weather History & Observations

Time (AKST) Temp. Windchill Dew Point Humidity Pressure Visibility Wind Dir Wind Speed Gust Speed Precip Events Conditions
12:53 AM 30.0 °F 21.1 °F 23.0 °F 75% 30.41 in 10.0 mi NNE 10.4 mph - N/A   Overcast
1:53 AM 30.0 °F 20.5 °F 23.0 °F 75% 30.42 in 10.0 mi NNE 11.5 mph - N/A   Overcast
3:53 AM 28.9 °F 18.6 °F 21.9 °F 75% 30.42 in 10.0 mi NNE 12.7 mph - N/A   Overcast
4:53 AM 28.0 °F 18.1 °F 21.0 °F 75% 30.42 in 10.0 mi NNE 11.5 mph - N/A   Overcast
5:53 AM 26.1 °F 16.2 °F 19.9 °F 78% 30.44 in 10.0 mi NNE 10.4 mph - N/A   Mostly Cloudy
6:53 AM 27.0 °F 15.2 °F 19.9 °F 75% 30.43 in 10.0 mi NNE 15.0 mph - N/A   Overcast
7:53 AM 28.0 °F 20.0 °F 19.9 °F 72% 30.44 in 10.0 mi NNE 8.1 mph - N/A   Overcast
8:53 AM 28.0 °F 18.1 °F 21.0 °F 75% 30.44 in 10.0 mi North 11.5 mph - N/A   Overcast
9:53 AM 28.9 °F 19.8 °F 21.9 °F 75% 30.44 in 10.0 mi NNE 10.4 mph - N/A   Overcast
10:53 AM 30.0 °F 20.5 °F 23.0 °F 75% 30.44 in 10.0 mi NNE 11.5 mph - N/A   Overcast
11:53 AM 32.0 °F 24.8 °F 24.1 °F 73% 30.43 in 10.0 mi North 8.1 mph - N/A   Overcast
12:53 PM 32.0 °F 23.6 °F 24.1 °F 73% 30.43 in 10.0 mi North 10.4 mph - N/A   Overcast
1:53 PM 33.1 °F 26.1 °F 24.1 °F 70% 30.42 in 10.0 mi North 8.1 mph - N/A   Overcast
2:53 PM 32.0 °F 26.4 °F 24.1 °F 73% 30.42 in 10.0 mi North 5.8 mph - N/A   Overcast
3:53 PM 33.1 °F 24.9 °F 23.0 °F 66% 30.41 in 10.0 mi North 10.4 mph - N/A   Overcast
4:53 PM 33.1 °F 26.9 °F 21.9 °F 64% 30.40 in 10.0 mi North 6.9 mph - N/A   Overcast
5:53 PM 33.1 °F 26.1 °F 21.0 °F 61% 30.39 in 10.0 mi NNE 8.1 mph - N/A   Overcast
6:53 PM 30.0 °F 26.5 °F 21.9 °F 72% 30.38 in 10.0 mi North 3.5 mph - N/A   Overcast
7:53 PM 30.0 °F 24.1 °F 21.0 °F 69% 30.37 in 10.0 mi North 5.8 mph - N/A   Mostly Cloudy
8:53 PM 30.0 °F 23.2 °F 19.0 °F 64% 30.35 in 10.0 mi NNE 6.9 mph - N/A   Clear
9:53 PM 27.0 °F 21.6 °F 18.0 °F 69% 30.33 in 10.0 mi North 4.6 mph - N/A   Scattered Clouds
10:53 PM 26.1 °F 21.9 °F 17.1 °F 69% 30.33 in 10.0 mi NNW 3.5 mph - N/A   Clear
11:53 PM 24.1 °F - 17.1 °F 75% 30.32 in 10.0 mi Calm Calm - N/A   Overcast